Regional Weather Roundup
Issued by NWS

Home | Current Version | Previous Version | Text Only | Print | Product List | Glossary On
Versions: 1 2 3 4 5 6 7 8 9 10 11 12 13 14 15 16 17 18 19 20 21 22 23 24 25 26 27 28 29 30 31 32 33 34 35 36 37 38 39 40 41 42 43 44 45 46 47 48 49 50
498
ASUS43 KTOP 051108
RWRKS

WEATHER ROUNDUP FOR KANSAS
NATIONAL WEATHER SERVICE GOODLAND KS
600 AM CDT THU MAY 05 2016

NOTE:  "FAIR" INDICATES FEW OR NO CLOUDS BELOW 12,000 FEET WITH NO
SIGNIFICANT WEATHER AND/OR OBSTRUCTIONS TO VISIBILITY.

KSZ001>006-013>018-027>032-041>047-051200-
NORTHWEST KANSAS

CITY           SKY/WX    TMP DP  RH WIND       PRES   REMARKS
GOODLAND       CLEAR     55  42  61 SW13      30.09F
HAYS           CLEAR     45  34  65 CALM      30.09S
HILL CITY      CLEAR     43  40  89 W3        30.10S
RUSSELL        CLEAR     43  39  86 SW7       30.08R
$$

KSZ061>065-074>080-084>089-051200-
SOUTHWEST KANSAS

CITY           SKY/WX    TMP DP  RH WIND       PRES   REMARKS
DODGE CITY     CLEAR     51  41  68 S3        30.11R
ELKHART          N/A     52  39  61 SW6         N/A
GARDEN CITY    CLEAR     50  43  77 S5        30.11R
GREAT BEND     CLEAR     43  36  75 CALM      30.09F
LIBERAL        CLEAR     48  39  71 SW6       30.12S
PRATT          CLEAR     42  37  84 NW5       30.10R
$$

KSZ066>073-081>083-090>101-051200-
SOUTHEAST KANSAS

CITY           SKY/WX    TMP DP  RH WIND       PRES   REMARKS
CHANUTE        CLEAR     44  39  82 NW3       30.04R
COFFEYVILLE    CLEAR     44  41  89 NW3       30.05R
HUTCHINSON     CLEAR     45  41  86 NW5       30.08R
MEDICINE LODGE   N/A     45  41  86 CALM      30.09R
NEWTON         CLEAR     48  34  57 N6        30.08S
PARSONS        CLEAR     43  42  97 CALM      30.05R
WICHITA INTL   CLEAR     48  39  71 NW6       30.07R
WICHITA JABRA  CLEAR     47  39  74 NW3       30.06S
WICHITA MCCONL CLEAR     48  41  77 N3        30.06S
WINFIELD       CLEAR     43  40  89 CALM      30.25F
$$

KSZ007>012-019>026-033>040-048>060-102>105-051200-
NORTHEAST KANSAS

CITY           SKY/WX    TMP DP  RH WIND       PRES   REMARKS
CONCORDIA      CLEAR     44  36  73 W6        30.07S
EMPORIA        CLEAR     46  40  79 W6        30.05R
LAWRENCE       CLEAR     42  40  92 NW7       30.04R
MANHATTAN      CLEAR     40  37  89 SW3       30.07R
MARYSVILLE     CLEAR     43  41  93 CALM      30.07R
OLATHE IND     CLEAR     47  41  80 W8        30.04R
OLATHE EXE     CLEAR     48  39  71 W7        30.02R
SALINA         CLEAR     47  39  74 NW3       30.08R
TOPEKA BILLARD CLEAR     47  42  83 CALM      30.04R
TOPEKA FORBES  CLEAR     45  38  76 CALM      30.04R
$$




USA.gov is the U.S. government's official web portal to all federal, state and local government web resources and services.